Linton Municipal Airport, ND

7:41 AM CDT on October 23, 2017 (GMT -0500)
Linton Municipal Airport

Weather History for K7L2 - May, 2014

Change the Weather History Date:

Tuesday, May 6, 2014

  Actual Average (KBIS) Record (KBIS)
Temperature  
Mean Temperature 55 °F -  
Max Temperature 66 °F 65 °F 89 °F (1916)
Min Temperature 44 °F 38 °F 17 °F (1989)
Degree Days  
Heating Degree Days 10    
Growing Degree Days 5 (Base 50)    
Moisture  
Dew Point 46 °F    
Average Humidity 71    
Maximum Humidity 100    
Minimum Humidity 46    
Precipitation  
Precipitation 0.00 in - - ()
Sea Level Pressure  
Sea Level Pressure 29.73 in    
Wind  
Wind Speed 11 mph (ESE)    
Max Wind Speed 16 mph    
Max Gust Speed 22 mph    
Visibility 10 miles    
Events Thunderstorm    
Averages and records for this station are not official NWS values.
T = Trace of Precipitation, MM = Missing Value Source: NWS Daily Summary

Daily Weather History Graph

Daily Weather History Graph

Search for Another Location

Airport or City:

Trip Planner

Search our weather history database for the weather conditions in past years. The results will help you decide how hot, cold, wet, or windy it might be!

Date:

Astronomy

May. 06, 2014 Rise Set
Actual Time 6:19 AM CDT 8:56 PM CDT
Civil Twilight 5:45 AM CDT 9:30 PM CDT
Nautical Twilight 5:03 AM CDT 10:13 PM CDT
Astronomical Twilight 4:13 AM CDT 11:03 PM CDT
Moon 12:41 PM CDT (5/6) 2:12 AM CDT (5/6)
Length of Visible Light 15h 44m
Length of Day
14h 36m
Waxing Crescent, 46% of the Moon is Illuminated
May 6
Waxing Crescent
May 6
First Quarter
May 14
Full
May 21
Last Quarter
May 28
New

Hourly Weather History & Observations

Time (CDT) Temp. Windchill Dew Point Humidity Pressure Visibility Wind Dir Wind Speed Gust Speed Precip Events Conditions
12:15 AM 50.0 °F - 44.6 °F 82% 29.84 in 10.0 mi East 12.7 mph - N/A Thunderstorm Partly Cloudy
12:35 AM 50.0 °F - 44.6 °F 82% 29.86 in 10.0 mi NE 8.1 mph - N/A Thunderstorm Scattered Clouds
12:55 AM 48.2 °F - 44.6 °F 87% 29.84 in 8.0 mi East 12.7 mph 19.6 mph N/A   Overcast
1:15 AM 48.2 °F - 46.4 °F 93% 29.84 in 7.0 mi ESE 15.0 mph - N/A   Overcast
1:35 AM 48.2 °F - 46.4 °F 93% 29.83 in 7.0 mi ESE 11.5 mph - N/A   Mostly Cloudy
1:55 AM 46.4 °F 41.9 °F 46.4 °F 100% 29.83 in 7.0 mi East 9.2 mph - N/A   Overcast
2:15 AM 46.4 °F 40.7 °F 46.4 °F 100% 29.82 in 5.0 mi ESE 12.7 mph - N/A   Mostly Cloudy
2:35 AM 46.4 °F 41.9 °F 46.4 °F 100% 29.83 in 5.0 mi SE 9.2 mph - N/A   Overcast
6:55 AM 44.6 °F 39.2 °F 44.6 °F 100% 29.75 in 10.0 mi East 10.4 mph - N/A   Mostly Cloudy
7:15 AM 46.4 °F 41.5 °F 46.4 °F 100% 29.76 in 10.0 mi East 10.4 mph - N/A   Mostly Cloudy
7:35 AM 46.4 °F 41.5 °F 46.4 °F 100% 29.76 in 10.0 mi East 10.4 mph - N/A   Partly Cloudy
7:55 AM 46.4 °F 41.1 °F 46.4 °F 100% 29.76 in 10.0 mi East 11.5 mph - N/A   Mostly Cloudy
8:15 AM 46.4 °F 40.7 °F 46.4 °F 100% 29.76 in 10.0 mi East 12.7 mph - N/A   Overcast
9:15 AM 48.2 °F - 48.2 °F 100% 29.75 in 10.0 mi East 13.8 mph 20.7 mph N/A   Overcast
9:35 AM 50.0 °F - 48.2 °F 94% 29.75 in 10.0 mi East 12.7 mph 19.6 mph N/A   Overcast
9:55 AM 50.0 °F - 46.4 °F 87% 29.75 in 10.0 mi ESE 10.4 mph 18.4 mph N/A   Overcast
10:15 AM 51.8 °F - 46.4 °F 82% 29.75 in 10.0 mi SE 9.2 mph - N/A   Overcast
10:35 AM 51.8 °F - 46.4 °F 82% 29.75 in 10.0 mi SE 12.7 mph - N/A   Mostly Cloudy
10:55 AM 53.6 °F - 46.4 °F 77% 29.75 in 10.0 mi SE 10.4 mph - N/A   Mostly Cloudy
11:15 AM 55.4 °F - 46.4 °F 72% 29.74 in 10.0 mi ESE 11.5 mph - N/A   Scattered Clouds
11:35 AM 55.4 °F - 46.4 °F 72% 29.74 in 10.0 mi ESE 11.5 mph 18.4 mph N/A   Partly Cloudy
11:55 AM 55.4 °F - 46.4 °F 72% 29.73 in 10.0 mi ESE 12.7 mph - N/A   Partly Cloudy
12:15 PM 57.2 °F - 48.2 °F 72% 29.73 in 10.0 mi ESE 12.7 mph - N/A   Partly Cloudy
12:35 PM 59.0 °F - 48.2 °F 67% 29.72 in 10.0 mi ESE 11.5 mph - N/A   Clear
12:55 PM 62.6 °F - 48.2 °F 59% 29.71 in 10.0 mi ESE 10.4 mph 16.1 mph N/A   Clear
1:15 PM 62.6 °F - 48.2 °F 59% 29.71 in 10.0 mi ESE 9.2 mph - N/A   Clear
1:35 PM 64.4 °F - 48.2 °F 56% 29.71 in 10.0 mi SE 6.9 mph - N/A   Clear
1:55 PM 64.4 °F - 48.2 °F 56% 29.70 in 10.0 mi SE 8.1 mph - N/A   Clear
2:15 PM 64.4 °F - 46.4 °F 52% 29.70 in 10.0 mi ESE 11.5 mph - N/A   Partly Cloudy
2:35 PM 64.4 °F - 46.4 °F 52% 29.70 in 10.0 mi SE 13.8 mph - N/A   Clear
2:55 PM 64.4 °F - 46.4 °F 52% 29.69 in 10.0 mi SE 13.8 mph 20.7 mph N/A   Clear
3:15 PM 66.2 °F - 46.4 °F 49% 29.69 in 10.0 mi SE 11.5 mph 17.3 mph N/A   Clear
3:35 PM 66.2 °F - 46.4 °F 49% 29.67 in 10.0 mi ESE 5.8 mph - N/A   Clear
3:55 PM 66.2 °F - 46.4 °F 49% 29.68 in 10.0 mi SE 13.8 mph - N/A   Partly Cloudy
4:15 PM 66.2 °F - 46.4 °F 49% 29.68 in 10.0 mi SSE 11.5 mph 16.1 mph N/A   Clear
4:35 PM 66.2 °F - 46.4 °F 49% 29.67 in 10.0 mi ESE 11.5 mph 17.3 mph N/A   Clear
4:55 PM 66.2 °F - 46.4 °F 49% 29.68 in 10.0 mi SE 10.4 mph 16.1 mph N/A   Clear
5:15 PM 66.2 °F - 46.4 °F 49% 29.67 in 10.0 mi SE 10.4 mph - N/A   Clear
5:35 PM 66.2 °F - 46.4 °F 49% 29.66 in 10.0 mi ESE 16.1 mph - N/A   Partly Cloudy
5:55 PM 66.2 °F - 46.4 °F 49% 29.66 in 10.0 mi ESE 12.7 mph 20.7 mph N/A   Clear
6:15 PM 66.2 °F - 44.6 °F 46% 29.66 in 10.0 mi ESE 16.1 mph 21.9 mph N/A   Clear
6:35 PM 66.2 °F - 44.6 °F 46% 29.66 in 10.0 mi ESE 12.7 mph - N/A   Clear
6:55 PM 64.4 °F - 44.6 °F 49% 29.66 in 10.0 mi ESE 11.5 mph 20.7 mph N/A   Clear
7:15 PM 62.6 °F - 44.6 °F 52% 29.67 in 10.0 mi East 13.8 mph - N/A   Clear
7:35 PM 62.6 °F - 44.6 °F 52% 29.69 in 10.0 mi ESE 12.7 mph - N/A   Clear
7:55 PM 62.6 °F - 44.6 °F 52% 29.69 in 10.0 mi SE 11.5 mph 19.6 mph N/A   Clear
8:15 PM 59.0 °F - 44.6 °F 59% 29.70 in 10.0 mi ESE 11.5 mph 17.3 mph N/A   Clear
8:35 PM 57.2 °F - 44.6 °F 63% 29.70 in 10.0 mi ESE 9.2 mph - N/A   Partly Cloudy
8:55 PM 57.2 °F - 44.6 °F 63% 29.72 in 10.0 mi ESE 9.2 mph - N/A   Mostly Cloudy
9:15 PM 55.4 °F - 44.6 °F 67% 29.72 in 10.0 mi ESE 8.1 mph - N/A   Overcast
9:35 PM 53.6 °F - 44.6 °F 72% 29.72 in 10.0 mi ESE 6.9 mph - N/A   Mostly Cloudy
9:55 PM 51.8 °F - 44.6 °F 76% 29.73 in 10.0 mi ESE 6.9 mph - N/A   Scattered Clouds
10:15 PM 50.0 °F - 44.6 °F 82% 29.72 in 10.0 mi ESE 8.1 mph - N/A   Partly Cloudy
10:35 PM 50.0 °F - 42.8 °F 76% 29.72 in 10.0 mi East 10.4 mph - N/A   Clear
10:55 PM 50.0 °F - 42.8 °F 76% 29.72 in 10.0 mi East 10.4 mph - N/A   Clear
11:15 PM 50.0 °F - 42.8 °F 76% 29.72 in 10.0 mi East 10.4 mph - N/A   Clear
11:35 PM 50.0 °F - 42.8 °F 76% 29.72 in 10.0 mi East 9.2 mph - N/A   Clear
11:55 PM 50.0 °F - 42.8 °F 76% 29.72 in 10.0 mi ESE 9.2 mph - N/A   Clear